KU4DD Weather Reports


Display with metric or nautical units.
time (UTC)temp
F
wind
direction
speed
MPH
gust
MPH
rain 1hr
in
rain 24hr
in
rain mn
in
humidity
%
barometer
mb
20260510212712 73 8 0.0 0.0 0.00 0.00 0.00 94 999.0
20260510212201 73 8 0.0 0.0 0.00 0.00 0.00 94 998.6
20260510211648 74 8 0.0 0.0 0.00 0.00 0.00 94 998.6
20260510211147 73 8 0.0 0.0 0.00 0.00 0.00 94 998.6
20260510210634 74 8 0.0 0.0 0.00 0.00 0.00 94 999.0
20260510210110 74 8 0.0 0.0 0.00 0.00 0.00 94 999.0
20260510205559 74 8 0.0 0.0 0.00 0.00 0.00 94 998.6
20260510205055 74 8 0.0 0.0 0.00 0.00 0.00 94 999.0
20260510204542 74 8 0.0 0.0 0.00 0.00 0.00 94 999.0
20260510204020 74 8 0.0 0.0 0.00 0.00 0.00 94 999.0
20260510203504 74 8 0.0 0.0 0.00 0.00 0.00 94 999.0
20260510202956 74 8 0.0 0.0 0.00 0.00 0.00 94 999.0
20260510202452 74 8 0.0 0.0 0.00 0.00 0.00 94 999.0
20260510201938 74 8 0.0 0.0 0.00 0.00 0.00 94 999.0
20260510201429 74 8 0.0 0.0 0.00 0.00 0.00 94 999.0
20260510200904 74 8 0.0 0.0 0.00 0.00 0.00 52 999.0
20260510200356 74 8 0.0 0.0 0.00 0.00 0.00 52 999.0
20260510195832 73 8 0.0 0.0 0.00 0.00 0.00 52 999.0
20260510195322 73 8 0.0 0.0 0.00 0.00 0.00 52 999.0
20260510194758 73 8 0.0 0.0 0.00 0.00 0.00 51 999.0
20260510194251 73 8 0.0 0.0 0.00 0.00 0.00 52 999.3
20260510193726 74 8 0.0 0.0 0.00 0.00 0.00 51 999.3
20260510193216 74 8 0.0 0.0 0.00 0.00 0.00 52 999.3
20260510192652 73 8 0.0 0.0 0.00 0.00 0.00 52 999.3
20260510192143 73 8 0.0 0.0 0.00 0.00 0.00 52 999.7
20260510191619 73 8 0.0 0.0 0.00 0.00 0.00 53 999.3
20260510191111 73 8 0.0 0.0 0.00 0.00 0.00 52 999.7
20260510190546 73 8 0.0 0.0 0.00 0.00 0.00 52 999.7
20260510190042 73 8 0.0 0.0 0.00 0.00 0.00 52 999.7
20260510185507 73 8 0.0 0.0 0.00 0.00 0.00 52 999.7
20260510184958 73 8 0.0 0.0 0.00 0.00 0.00 52 999.7
20260510184434 73 8 0.0 0.0 0.00 0.00 0.00 53 999.7
20260510183926 73 8 0.0 0.0 0.00 0.00 0.00 53 999.7
20260510183408 73 8 0.0 0.0 0.00 0.00 0.00 53 1000.0
20260510182850 73 8 0.0 0.0 0.00 0.00 0.00 53 999.7
20260510182330 73 8 0.0 0.0 0.00 0.00 0.00 52 999.7
20260510181804 73 8 0.0 0.0 0.00 0.00 0.00 53 1000.0
20260510181256 73 8 0.0 0.0 0.00 0.00 0.00 53 1000.0
20260510180754 72 8 0.0 0.0 0.00 0.00 0.00 52 1000.0
20260510180219 72 8 0.0 0.0 0.00 0.00 0.00 52 1000.0
20260510175711 72 8 0.0 0.0 0.00 0.00 0.00 54 1000.0
20260510175137 72 8 0.0 0.0 0.00 0.00 0.00 53 1000.0
20260510174630 72 8 0.0 0.0 0.00 0.00 0.00 53 1000.0
20260510174105 72 8 0.0 0.0 0.00 0.00 0.00 55 1000.0
20260510173557 72 8 0.0 0.0 0.00 0.00 0.00 52 1000.0
20260510173052 71 8 0.0 0.0 0.00 0.00 0.00 54 1000.3
20260510172528 71 8 0.0 0.0 0.00 0.00 0.00 57 1000.3
20260510172012 71 8 0.0 0.0 0.00 0.00 0.00 57 1000.3
20260510171439 71 8 0.0 0.0 0.00 0.00 0.00 58 1000.3
20260510170929 71 8 0.0 0.0 0.00 0.00 0.00 58 1000.3
20260510170426 71 8 0.0 0.0 0.00 0.00 0.00 58 1000.3
20260510165851 71 8 0.0 0.0 0.00 0.00 0.00 58 1000.3
20260510165326 71 8 0.0 0.0 0.00 0.00 0.00 58 1000.3
20260510164818 71 8 0.0 0.0 0.00 0.00 0.00 58 1000.3
20260510164253 71 8 0.0 0.0 0.00 0.00 0.00 58 1000.3
20260510163745 71 8 0.0 0.0 0.00 0.00 0.00 58 1000.3
20260510163221 71 8 0.0 0.0 0.00 0.00 0.00 58 1000.3
20260510162712 71 8 0.0 0.0 0.00 0.00 0.00 59 1000.3
20260510162147 71 8 0.0 0.0 0.00 0.00 0.00 58 1000.7
20260510161624 71 8 0.0 0.0 0.00 0.00 0.00 58 1000.7
20260510161114 71 8 0.0 0.0 0.00 0.00 0.00 58 1000.7
20260510160554 71 8 0.0 0.0 0.00 0.00 0.00 58 1000.7
20260510160029 71 8 0.0 0.0 0.00 0.00 0.00 59 1000.7
20260510155520 71 8 0.0 0.0 0.00 0.00 0.00 58 1000.7
20260510154955 71 8 0.0 0.0 0.00 0.00 0.00 58 1000.7
20260510154448 71 8 0.0 0.0 0.00 0.00 0.00 58 1000.7
20260510153923 71 8 0.0 0.0 0.00 0.00 0.00 59 1000.7
20260510153414 71 8 0.0 0.0 0.00 0.00 0.00 59 1000.7
20260510152856 71 8 0.0 0.0 0.00 0.00 0.00 58 1000.7
20260510152338 71 8 0.0 0.0 0.00 0.00 0.00 58 1001.0
20260510151822 71 8 0.0 0.0 0.00 0.00 0.00 58 1000.7
20260510151304 71 8 0.0 0.0 0.00 0.00 0.00 59 1000.7
20260510150740 71 8 0.0 0.0 0.00 0.00 0.00 59 1000.7
20260510150232 71 8 0.0 0.0 0.00 0.00 0.00 59 1001.0
20260510145714 71 8 0.0 0.0 0.00 0.00 0.00 59 1001.0
20260510145213 71 8 0.0 0.0 0.00 0.00 0.00 58 1000.7
20260510144646 71 8 0.0 0.0 0.00 0.00 0.00 58 1000.7
20260510144130 71 8 0.0 0.0 0.00 0.00 0.00 58 1000.7
20260510143613 72 8 0.0 0.0 0.00 0.00 0.00 59 1000.3
20260510143052 72 8 0.0 0.0 0.00 0.00 0.00 59 1000.7
20260510142526 72 8 0.0 0.0 0.00 0.00 0.00 58 1000.7
20260510142014 72 8 0.0 0.0 0.00 0.00 0.00 59 1000.7
20260510141450 71 8 0.0 0.0 0.00 0.00 0.00 59 1000.7
20260510140940 71 8 0.0 0.0 0.00 0.00 0.00 59 1000.7
20260510140416 71 8 0.0 0.0 0.00 0.00 0.00 59 1000.7
20260510135910 71 8 0.0 0.0 0.00 0.00 0.00 58 1001.0
20260510135354 71 8 0.0 0.0 0.00 0.00 0.00 59 1001.0
20260510134838 71 8 0.0 0.0 0.00 0.00 0.00 59 1000.7
20260510134320 71 8 0.0 0.0 0.00 0.00 0.00 60 1000.7
20260510133808 72 8 0.0 0.0 0.00 0.00 0.00 60 1000.7
20260510133253 71 8 0.0 0.0 0.00 0.00 0.00 59 1000.7
20260510132741 71 8 0.0 0.0 0.00 0.00 0.00 59 1000.7
20260510132231 71 8 0.0 0.0 0.00 0.00 0.00 59 1000.3
20260510131716 71 8 0.0 0.0 0.00 0.00 0.00 59 1000.7
20260510131152 71 8 0.0 0.0 0.00 0.00 0.00 60 1000.7
20260510130644 72 8 0.0 0.0 0.00 0.00 0.00 61 1000.7
20260510130131 72 8 0.0 0.0 0.00 0.00 0.00 60 1000.3
20260510125610 72 8 0.0 0.0 0.00 0.00 0.00 61 1000.3
20260510125056 72 8 0.0 0.0 0.00 0.00 0.00 60 1000.7
20260510124532 71 8 0.0 0.0 0.00 0.00 0.00 60 1000.3
20260510124019 71 8 0.0 0.0 0.00 0.00 0.00 59 1000.3
20260510123507 71 8 0.0 0.0 0.00 0.00 0.00 59 1000.3
20260510122952 71 8 0.0 0.0 0.00 0.00 0.00 58 1000.3
20260510122434 71 8 0.0 0.0 0.00 0.00 0.00 57 1000.3
20260510121914 71 8 0.0 0.0 0.00 0.00 0.00 57 1000.3
20260510121350 71 8 0.0 0.0 0.00 0.00 0.00 55 1000.3
20260510120838 71 8 0.0 0.0 0.00 0.00 0.00 55 1000.3
20260510120323 71 8 0.0 0.0 0.00 0.00 0.00 53 1000.3
20260510115811 71 8 0.0 0.0 0.00 0.00 0.00 56 1000.0
20260510115258 71 8 0.0 0.0 0.00 0.00 0.00 54 1000.3
20260510114745 72 8 0.0 0.0 0.00 0.00 0.00 55 1000.0
20260510114233 72 8 0.0 0.0 0.00 0.00 0.00 93 1000.0
20260510113718 72 8 0.0 0.0 0.00 0.00 0.00 94 1000.0
20260510113205 71 8 0.0 0.0 0.00 0.00 0.00 99 1000.0
20260510112652 71 8 0.0 0.0 0.00 0.00 0.00 93 1000.0
20260510112139 71 8 0.0 0.0 0.00 0.00 0.00 99 999.7
20260510111627 71 8 0.0 0.0 0.00 0.00 0.00 94 999.7
20260510111113 71 8 0.0 0.0 0.00 0.00 0.00 100 999.7
20260510110600 71 8 0.0 0.0 0.00 0.00 0.00 100 999.3
20260510110048 71 8 0.0 0.0 0.00 0.00 0.00 100 999.3
20260510105534 71 8 0.0 0.0 0.00 0.00 0.00 100 999.3
20260510105026 71 8 0.0 0.0 0.00 0.00 0.00 100 999.3
20260510104513 71 8 0.0 0.0 0.00 0.00 0.00 100 999.3
20260510103949 71 8 0.0 0.0 0.00 0.00 0.00 100 999.3
20260510103436 71 8 0.0 0.0 0.00 0.00 0.00 100 999.0
20260510102933 71 8 0.0 0.0 0.00 0.00 0.00 100 999.0
20260510102409 71 8 0.0 0.0 0.00 0.00 0.00 100 999.0
20260510101857 71 8 0.0 0.0 0.00 0.00 0.00 100 999.0
20260510101345 71 8 0.0 0.0 0.00 0.00 0.00 100 999.0
20260510100831 71 8 0.0 0.0 0.00 0.00 0.00 100 998.6
20260510100317 71 8 0.0 0.0 0.00 0.00 0.00 100 998.6
20260510095808 71 8 0.0 0.0 0.00 0.00 0.00 100 998.6
20260510095256 71 8 0.0 0.0 0.00 0.00 0.00 100 998.3
20260510094747 71 8 0.0 0.0 0.00 0.00 0.00 100 998.3
20260510094234 71 8 0.0 0.0 0.00 0.00 0.00 100 998.6
20260510093714 71 8 0.0 0.0 0.00 0.00 0.00 100 998.3
20260510093200 71 8 0.0 0.0 0.00 0.00 0.00 100 998.3
20260510092636 71 8 0.0 0.0 0.00 0.00 0.00 100 998.3
20260510092123 71 8 0.0 0.0 0.00 0.00 0.00 100 998.3
20260510091610 71 8 0.0 0.0 0.00 0.00 0.00 100 998.3
20260510091059 71 8 0.0 0.0 0.00 0.00 0.00 100 998.3
20260510090544 71 8 0.0 0.0 0.00 0.00 0.00 100 998.0
20260510090024 71 8 0.0 0.0 0.00 0.00 0.00 100 998.3
20260510085505 71 8 0.0 0.0 0.00 0.00 0.00 100 998.0
20260510084948 71 8 0.0 0.0 0.00 0.00 0.00 100 998.0
20260510084434 71 8 0.0 0.0 0.00 0.00 0.00 100 998.0
20260510083923 71 8 0.0 0.0 0.00 0.00 0.00 100 998.0
20260510083407 71 8 0.0 0.0 0.00 0.00 0.00 100 998.0
20260510082844 71 8 0.0 0.0 0.00 0.00 0.00 98 998.0
20260510082332 71 8 0.0 0.0 0.00 0.00 0.00 98 998.0
20260510081819 71 8 0.0 0.0 0.00 0.00 0.00 96 998.0
20260510081306 71 8 0.0 0.0 0.00 0.00 0.00 97 997.6
20260510080752 71 8 0.0 0.0 0.00 0.00 0.00 98 998.0
20260510080242 71 8 0.0 0.0 0.00 0.00 0.00 95 997.6
20260510075726 71 8 0.0 0.0 0.00 0.00 0.00 95 997.6
20260510075207 71 8 0.0 0.0 0.00 0.00 0.00 92 997.6
20260510074654 71 8 0.0 0.0 0.00 0.00 0.00 90 997.6
20260510074132 71 8 0.0 0.0 0.00 0.00 0.00 90 997.6
20260510073622 71 8 0.0 0.0 0.00 0.00 0.00 92 997.6
20260510073110 71 8 0.0 0.0 0.00 0.00 0.00 92 997.6
20260510072547 71 8 0.0 0.0 0.00 0.00 0.00 90 997.3
20260510072035 71 8 0.0 0.0 0.00 0.00 0.00 93 997.3
20260510071521 71 8 0.0 0.0 0.00 0.00 0.00 90 997.3
20260510071007 71 8 0.0 0.0 0.00 0.00 0.00 90 997.3
20260510070456 71 8 0.0 0.0 0.00 0.00 0.00 88 997.3
20260510065944 71 8 0.0 0.0 0.00 0.00 0.00 89 997.3
20260510065429 71 8 0.0 0.0 0.00 0.00 0.00 88 997.6
20260510064904 71 8 0.0 0.0 0.00 0.00 0.00 86 997.6
20260510064354 71 8 0.0 0.0 0.00 0.00 0.00 85 997.6
20260510063839 71 8 0.0 0.0 0.00 0.00 0.00 80 997.6
20260510063326 70 8 0.0 0.0 0.00 0.00 0.00 81 997.6
20260510062818 70 8 0.0 0.0 0.00 0.00 0.00 81 997.6
20260510062306 70 8 0.0 0.0 0.00 0.00 0.00 83 997.6
20260510061743 70 8 0.0 0.0 0.00 0.00 0.00 81 997.6
20260510061228 70 8 0.0 0.0 0.00 0.00 0.00 85 997.6
20260510060705 70 8 0.0 0.0 0.00 0.00 0.00 80 997.6
20260510060152 70 8 0.0 0.0 0.00 0.00 0.00 84 997.6
20260510055639 70 8 0.0 0.0 0.00 0.00 0.00 82 997.6
20260510055126 71 8 0.0 0.0 0.00 0.00 0.00 81 997.6
20260510054613 71 8 0.0 0.0 0.00 0.00 0.00 85 997.6
20260510054102 71 8 0.0 0.0 0.00 0.00 0.00 83 998.0
20260510053546 71 8 0.0 0.0 0.00 0.00 0.00 83 998.0
20260510053023 71 8 0.0 0.0 0.00 0.00 0.00 84 998.0
20260510052511 71 8 0.0 0.0 0.00 0.00 0.00 79 998.0
20260510051958 71 8 0.0 0.0 0.00 0.00 0.00 86 998.0
20260510051445 71 8 0.0 0.0 0.00 0.00 0.00 83 998.0
20260510050932 71 8 0.0 0.0 0.00 0.00 0.00 81 998.0
20260510050418 71 8 0.0 0.0 0.00 0.00 0.00 85 998.0
20260510045906 71 8 0.0 0.0 0.00 0.00 0.00 82 998.0
20260510045352 71 8 0.0 0.0 0.00 0.00 0.00 83 998.0
20260510044838 71 8 0.0 0.0 0.00 0.00 0.00 84 998.3
20260510044324 71 8 0.0 0.0 0.00 0.00 0.00 83 998.3
20260510043812 71 8 0.0 0.0 0.00 0.00 0.00 85 998.0
20260510043258 71 8 0.0 0.0 0.00 0.00 0.00 81 998.3
20260510042746 71 8 0.0 0.0 0.00 0.00 0.00 85 998.3
20260510042232 71 8 0.0 0.0 0.00 0.00 0.00 81 998.3
20260510041720 71 8 0.0 0.0 0.00 0.00 0.00 84 998.3
20260510041206 71 8 0.0 0.0 0.00 0.00 0.00 85 998.0
20260510040651 71 8 0.0 0.0 0.00 0.00 0.00 77 998.3
20260510040139 71 8 0.0 0.0 0.00 0.00 0.00 84 998.0
20260510035626 71 8 0.0 0.0 0.00 0.00 0.00 80 998.0
20260510035113 71 8 0.0 0.0 0.00 0.00 0.00 81 998.0
20260510034559 71 8 0.0 0.0 0.00 0.00 0.00 82 998.0
20260510034046 71 8 0.0 0.0 0.00 0.00 0.00 80 998.0
20260510033532 71 8 0.0 0.0 0.00 0.00 0.00 84 998.0
20260510033018 71 8 0.0 0.0 0.00 0.00 0.00 78 998.0
20260510032506 71 8 0.0 0.0 0.00 0.00 0.00 84 997.6
20260510031957 71 8 0.0 0.0 0.00 0.00 0.00 79 998.0
20260510031445 71 8 0.0 0.0 0.00 0.00 0.00 82 997.6
20260510030936 71 8 0.0 0.0 0.00 0.00 0.00 80 997.6
20260510030420 71 8 0.0 0.0 0.00 0.00 0.00 78 997.6
20260510025856 71 8 0.0 0.0 0.00 0.00 0.00 82 997.6
20260510025344 71 8 0.0 0.0 0.00 0.00 0.00 77 997.6
20260510024830 71 8 0.0 0.0 0.00 0.00 0.00 82 997.6
20260510024317 72 8 0.0 0.0 0.00 0.00 0.00 78 997.6
20260510023807 72 8 0.0 0.0 0.00 0.00 0.00 81 997.6
20260510023255 72 8 0.0 0.0 0.00 0.00 0.00 78 997.6
20260510022737 72 8 0.0 0.0 0.00 0.00 0.00 79 997.6
20260510022215 72 8 0.0 0.0 0.00 0.00 0.00 81 997.3
20260510021700 72 8 0.0 0.0 0.00 0.00 0.00 75 997.3
20260510021152 72 8 0.0 0.0 0.00 0.00 0.00 82 997.3
20260510020638 72 8 0.0 0.0 0.00 0.00 0.00 76 997.3
20260510020113 72 8 0.0 0.0 0.00 0.00 0.00 80 997.0
20260510015601 72 8 0.0 0.0 0.00 0.00 0.00 78 997.3
20260510015048 72 8 0.0 0.0 0.00 0.00 0.00 75 997.3
20260510014535 72 8 0.0 0.0 0.00 0.00 0.00 78 997.3
20260510014021 72 8 0.0 0.0 0.00 0.00 0.00 74 997.3
20260510013508 72 8 0.0 0.0 0.00 0.00 0.00 79 997.0
20260510012953 72 8 0.0 0.0 0.00 0.00 0.00 76 997.0
20260510012442 72 8 0.0 0.0 0.00 0.00 0.00 70 997.0
20260510011926 72 8 0.0 0.0 0.00 0.00 0.00 76 996.6
20260510011424 72 8 0.0 0.0 0.00 0.00 0.00 69 997.0
20260510010910 72 8 0.0 0.0 0.00 0.00 0.00 74 997.0
20260510010352 72 8 0.0 0.0 0.00 0.00 0.00 73 996.6
20260510005837 72 8 0.0 0.0 0.00 0.00 0.00 68 996.6
20260510005320 73 8 0.0 0.0 0.00 0.00 0.00 71 996.6
20260510004805 72 8 0.0 0.0 0.00 0.00 0.00 100 996.6
20260510004250 73 8 0.0 0.0 0.00 0.00 0.00 100 996.6
20260510003735 75 8 0.0 0.0 0.00 0.00 0.00 100 996.6